sat.trackr.live / text

‹ back to catalog

STARLINK-31977

NORAD 59892 · 2024-100H

PAYLOAD ACTIVE UNKNOWN

§ Identity

Operator
Country
US
Launch date
2024-05-28
Launch site
AFETR
Launch vehicle
Mass (kg)
RCS (m²)

Purposes: comms

External: N2YO · Heavens-Above · Gunter

§ Orbital elements

Epoch: 2026-09-21T22:26:25.126656Z

Period
94.27 min
Inclination
43.0022°
Eccentricity
0.0001285
Mean motion
15.27578052 rev/d
Perigee alt
482.2 km
Apogee alt
483.9 km
Semi-major
6,861.2 km
B*
7.8836e-6
RAAN
89.8725°
Arg perigee
269.9957°
Mean anomaly
90.0748°
Rev number
13,125

§ Raw data

STARLINK-319771 59892U 24100H   26264.93501304 -.00000045  00000+0  78836-5 0  99912 59892  43.0022  89.8725 0001285 269.9957  90.0748 15.27578052131250

JSON: /api/v1/satellites/59892 · /tle

For live sub-satellite position, see the globe view (requires WebGL).

§ Visibility from observer

Set your observer location to see the next 7 days of passes ≥ 10°. The values pass through the URL so the page stays shareable.

No JS? Fill the form by hand. The geolocation button needs JavaScript.